Time,TemperatureF,DewpointF,PressureIn,WindDirection,WindDirectionDegrees,WindSpeedMPH,WindSpeedGustMPH,Humidity,HourlyPrecipIn,Conditions,Clouds,dailyrainin,SolarRadiationWatts/m^2,SoftwareType,DateUTC
2013-07-26 00:00:00,56.4,55.0,30.09,NNE,13,0.0,0.0,95,0.00,,,0.01,0,Wunderground v.1.15,2013-07-26 04:00:00,
2013-07-26 00:01:00,56.3,54.9,30.09,North,-999,0.0,0.0,95,0.00,,,-99.99,0,WeatherLink 6.0.3,2013-07-26 04:01:00,
2013-07-26 00:04:00,56.2,54.8,30.09,NNE,13,0.0,0.0,95,0.00,,,0.00,0,Wunderground v.1.15,2013-07-26 04:04:00,
2013-07-26 00:06:00,56.2,54.8,30.09,NNE,13,0.0,0.0,95,0.00,,,0.00,0,Wunderground v.1.15,2013-07-26 04:06:00,
2013-07-26 00:11:00,56.0,54.6,30.09,NNE,13,0.0,0.0,95,0.00,,,0.00,0,Wunderground v.1.15,2013-07-26 04:11:00,
2013-07-26 00:15:00,56.0,54.6,30.09,NNE,13,0.0,0.0,95,0.00,,,0.00,0,Wunderground v.1.15,2013-07-26 04:15:00,
2013-07-26 00:20:00,55.9,54.5,30.09,NNE,13,0.0,0.0,95,0.00,,,0.00,0,Wunderground v.1.15,2013-07-26 04:20:00,
2013-07-26 00:26:00,55.7,54.3,30.08,NNE,13,0.0,0.0,95,0.00,,,0.00,0,Wunderground v.1.15,2013-07-26 04:26:00,
2013-07-26 00:31:00,55.6,54.2,30.08,NNE,13,0.0,0.0,95,0.00,,,0.00,0,Wunderground v.1.15,2013-07-26 04:31:00,
2013-07-26 00:37:00,55.5,54.1,30.08,NNE,13,0.0,0.0,95,0.00,,,0.00,0,Wunderground v.1.15,2013-07-26 04:37:00,
2013-07-26 00:43:00,55.4,54.0,30.07,NNE,13,0.0,0.0,95,0.00,,,0.00,0,Wunderground v.1.15,2013-07-26 04:43:00,
2013-07-26 00:48:00,55.4,54.0,30.07,NNE,13,0.0,0.0,95,0.00,,,0.00,0,Wunderground v.1.15,2013-07-26 04:48:00,
2013-07-26 00:53:00,55.3,54.2,30.07,NNE,13,0.0,0.0,96,0.00,,,0.00,0,Wunderground v.1.15,2013-07-26 04:53:00,
2013-07-26 00:59:00,55.2,54.1,30.07,NNE,13,0.0,0.0,96,0.00,,,0.00,0,Wunderground v.1.15,2013-07-26 04:59:00,
2013-07-26 01:04:00,55.2,54.1,30.07,NNE,13,0.0,0.0,96,0.00,,,0.00,0,Wunderground v.1.15,2013-07-26 05:04:00,
2013-07-26 01:10:00,55.2,54.1,30.07,NNE,13,0.0,0.0,96,0.00,,,0.00,0,Wunderground v.1.15,2013-07-26 05:10:00,
2013-07-26 01:16:00,55.2,54.1,30.07,NNE,13,0.0,0.0,96,0.00,,,0.00,0,Wunderground v.1.15,2013-07-26 05:16:00,
2013-07-26 01:21:00,55.2,54.1,30.07,NNE,13,0.0,0.0,96,0.00,,,0.00,0,Wunderground v.1.15,2013-07-26 05:21:00,
2013-07-26 01:27:00,55.0,53.9,30.06,NNE,13,0.0,0.0,96,0.00,,,0.00,0,Wunderground v.1.15,2013-07-26 05:27:00,
2013-07-26 01:33:00,54.9,53.8,30.06,NNE,13,0.0,0.0,96,0.00,,,0.00,0,Wunderground v.1.15,2013-07-26 05:33:00,
2013-07-26 01:39:00,54.9,53.8,30.06,NNE,13,0.0,0.0,96,0.00,,,0.00,0,Wunderground v.1.15,2013-07-26 05:39:00,
2013-07-26 01:44:00,54.8,53.7,30.07,NNE,13,0.0,0.0,96,0.00,,,0.00,0,Wunderground v.1.15,2013-07-26 05:44:00,
2013-07-26 01:49:00,54.7,53.6,30.07,NNE,13,0.0,0.0,96,0.00,,,0.00,0,Wunderground v.1.15,2013-07-26 05:49:00,
2013-07-26 01:55:00,54.5,53.4,30.07,NNE,13,0.0,0.0,96,0.00,,,0.00,0,Wunderground v.1.15,2013-07-26 05:55:00,
2013-07-26 02:01:00,54.4,53.3,30.08,North,-999,0.0,0.0,96,0.00,,,-99.99,0,WeatherLink 6.0.3,2013-07-26 06:01:00,
2013-07-26 02:06:00,54.3,53.2,30.08,NNE,13,0.0,0.0,96,0.00,,,0.00,0,Wunderground v.1.15,2013-07-26 06:06:00,
2013-07-26 02:12:00,54.2,53.1,30.08,NNE,13,0.0,0.0,96,0.00,,,0.00,0,Wunderground v.1.15,2013-07-26 06:12:00,
2013-07-26 02:17:00,54.1,53.0,30.08,NNE,13,0.0,0.0,96,0.00,,,0.00,0,Wunderground v.1.15,2013-07-26 06:17:00,
2013-07-26 02:22:00,54.0,52.9,30.08,NNE,13,0.0,0.0,96,0.00,,,0.00,0,Wunderground v.1.15,2013-07-26 06:22:00,
2013-07-26 02:28:00,53.9,52.8,30.08,NNE,13,0.0,0.0,96,0.00,,,0.00,0,Wunderground v.1.15,2013-07-26 06:28:00,
2013-07-26 02:34:00,53.8,52.7,30.08,NNE,13,0.0,0.0,96,0.00,,,0.00,0,Wunderground v.1.15,2013-07-26 06:34:00,
2013-07-26 02:40:00,53.9,52.8,30.08,NNE,13,0.0,0.0,96,0.00,,,0.00,0,Wunderground v.1.15,2013-07-26 06:40:00,
2013-07-26 02:45:00,53.8,52.7,30.08,NNE,13,0.0,0.0,96,0.00,,,0.00,0,Wunderground v.1.15,2013-07-26 06:45:00,
2013-07-26 02:50:00,53.7,52.6,30.08,NNE,13,0.0,0.0,96,0.00,,,0.00,0,Wunderground v.1.15,2013-07-26 06:50:00,
2013-07-26 02:56:00,53.5,52.4,30.08,NNE,13,0.0,0.0,96,0.00,,,0.00,0,Wunderground v.1.15,2013-07-26 06:56:00,
2013-07-26 03:02:00,53.4,52.3,30.08,NNE,13,0.0,0.0,96,0.00,,,0.00,0,Wunderground v.1.15,2013-07-26 07:02:00,
2013-07-26 03:07:00,53.4,52.3,30.08,NNE,13,0.0,0.0,96,0.00,,,0.00,0,Wunderground v.1.15,2013-07-26 07:07:00,
2013-07-26 03:12:00,53.3,52.2,30.08,NNE,13,0.0,0.0,96,0.00,,,0.00,0,Wunderground v.1.15,2013-07-26 07:12:00,
2013-07-26 03:17:00,53.3,52.2,30.08,NNE,13,0.0,0.0,96,0.00,,,0.00,0,Wunderground v.1.15,2013-07-26 07:17:00,
2013-07-26 03:23:00,53.1,52.0,30.08,NNE,13,0.0,0.0,96,0.00,,,0.00,0,Wunderground v.1.15,2013-07-26 07:23:00,
2013-07-26 03:28:00,53.0,51.9,30.08,NNE,13,0.0,0.0,96,0.00,,,0.00,0,Wunderground v.1.15,2013-07-26 07:28:00,
2013-07-26 03:34:00,52.9,51.8,30.08,NNE,13,0.0,0.0,96,0.00,,,0.00,0,Wunderground v.1.15,2013-07-26 07:34:00,
2013-07-26 03:39:00,52.9,51.8,30.08,NNE,13,0.0,0.0,96,0.00,,,0.00,0,Wunderground v.1.15,2013-07-26 07:39:00,
2013-07-26 03:45:00,52.9,51.8,30.08,NNE,13,0.0,0.0,96,0.00,,,0.00,0,Wunderground v.1.15,2013-07-26 07:45:00,
2013-07-26 03:51:00,52.8,51.7,30.08,NNE,13,0.0,0.0,96,0.00,,,0.00,0,Wunderground v.1.15,2013-07-26 07:51:00,
2013-07-26 03:56:00,52.8,51.7,30.08,NNE,13,0.0,0.0,96,0.00,,,0.00,0,Wunderground v.1.15,2013-07-26 07:56:00,
2013-07-26 04:01:00,52.7,51.6,30.08,North,-999,0.0,0.0,96,0.00,,,-99.99,0,WeatherLink 6.0.3,2013-07-26 08:01:00,
2013-07-26 04:07:00,52.6,51.5,30.08,NNE,13,0.0,0.0,96,0.00,,,0.00,0,Wunderground v.1.15,2013-07-26 08:07:00,
2013-07-26 04:13:00,52.4,51.3,30.08,NNE,13,0.0,0.0,96,0.00,,,0.00,0,Wunderground v.1.15,2013-07-26 08:13:00,
2013-07-26 04:18:00,52.3,51.2,30.08,NNE,13,0.0,0.0,96,0.00,,,0.00,0,Wunderground v.1.15,2013-07-26 08:18:00,
2013-07-26 04:24:00,52.2,51.1,30.08,NNE,13,0.0,0.0,96,0.00,,,0.00,0,Wunderground v.1.15,2013-07-26 08:24:00,
2013-07-26 04:29:00,52.1,51.0,30.08,NNE,13,0.0,0.0,96,0.00,,,0.00,0,Wunderground v.1.15,2013-07-26 08:29:00,
2013-07-26 04:35:00,52.2,51.1,30.08,NNE,13,0.0,0.0,96,0.00,,,0.00,0,Wunderground v.1.15,2013-07-26 08:35:00,
2013-07-26 04:40:00,52.2,51.4,30.08,NNE,13,0.0,0.0,97,0.00,,,0.00,0,Wunderground v.1.15,2013-07-26 08:40:00,
2013-07-26 04:45:00,52.1,51.0,30.08,NNE,13,0.0,0.0,96,0.00,,,0.00,0,Wunderground v.1.15,2013-07-26 08:45:00,
2013-07-26 04:50:00,51.9,50.8,30.08,NNE,13,0.0,0.0,96,0.00,,,0.00,0,Wunderground v.1.15,2013-07-26 08:50:00,
2013-07-26 04:55:00,51.9,51.1,30.08,NNE,13,0.0,0.0,97,0.00,,,0.00,0,Wunderground v.1.15,2013-07-26 08:55:00,
2013-07-26 05:01:00,51.9,51.1,30.08,North,-999,0.0,0.0,97,0.00,,,-99.99,0,WeatherLink 6.0.3,2013-07-26 09:01:00,
2013-07-26 05:07:00,51.9,51.1,30.08,NNE,13,0.0,0.0,97,0.00,,,0.00,0,Wunderground v.1.15,2013-07-26 09:07:00,
2013-07-26 05:13:00,51.8,51.0,30.08,NNE,13,0.0,0.0,97,0.00,,,0.00,0,Wunderground v.1.15,2013-07-26 09:13:00,
2013-07-26 05:18:00,51.8,51.0,30.08,NNE,13,0.0,0.0,97,0.00,,,0.00,0,Wunderground v.1.15,2013-07-26 09:18:00,
2013-07-26 05:24:00,51.8,51.0,30.08,NNE,13,0.0,0.0,97,0.00,,,0.00,0,Wunderground v.1.15,2013-07-26 09:24:00,
2013-07-26 05:30:00,51.6,50.8,30.08,NNE,13,0.0,0.0,97,0.00,,,0.00,0,Wunderground v.1.15,2013-07-26 09:30:00,
2013-07-26 05:35:00,51.5,50.7,30.08,NNE,13,0.0,0.0,97,0.00,,,0.00,0,Wunderground v.1.15,2013-07-26 09:35:00,
2013-07-26 05:41:00,51.4,50.6,30.08,NNE,13,0.0,0.0,97,0.00,,,0.00,0,Wunderground v.1.15,2013-07-26 09:41:00,
2013-07-26 05:46:00,51.3,50.5,30.08,NNE,13,0.0,0.0,97,0.00,,,0.00,0,Wunderground v.1.15,2013-07-26 09:46:00,
2013-07-26 05:52:00,51.2,50.4,30.08,NNE,13,0.0,0.0,97,0.00,,,0.00,0,Wunderground v.1.15,2013-07-26 09:52:00,
2013-07-26 05:57:00,51.1,50.0,30.08,NNE,13,0.0,0.0,96,0.00,,,0.00,0,Wunderground v.1.15,2013-07-26 09:57:00,
2013-07-26 06:02:00,51.1,50.3,30.08,NNE,13,0.0,0.0,97,0.00,,,0.00,0,Wunderground v.1.15,2013-07-26 10:02:00,
2013-07-26 06:08:00,51.1,50.3,30.08,NNE,13,0.0,0.0,97,0.00,,,0.00,0,Wunderground v.1.15,2013-07-26 10:08:00,
2013-07-26 06:14:00,50.9,50.1,30.09,NNE,13,0.0,0.0,97,0.00,,,0.00,0,Wunderground v.1.15,2013-07-26 10:14:00,
2013-07-26 06:20:00,50.8,50.0,30.09,NNE,13,0.0,0.0,97,0.00,,,0.00,5,Wunderground v.1.15,2013-07-26 10:20:00,
2013-07-26 06:25:00,50.7,49.9,30.09,NNE,13,0.0,0.0,97,0.00,,,0.00,7,Wunderground v.1.15,2013-07-26 10:25:00,
2013-07-26 06:30:00,50.6,49.8,30.09,NNE,13,0.0,0.0,97,0.00,,,0.00,11,Wunderground v.1.15,2013-07-26 10:30:00,
2013-07-26 06:36:00,50.7,49.9,30.09,NNE,13,0.0,0.0,97,0.00,,,0.00,12,Wunderground v.1.15,2013-07-26 10:36:00,
2013-07-26 06:42:00,50.7,49.9,30.10,NNE,13,0.0,0.0,97,0.00,,,0.00,16,Wunderground v.1.15,2013-07-26 10:42:00,
2013-07-26 06:48:00,50.8,50.0,30.10,NNE,13,0.0,0.0,97,0.00,,,0.00,21,Wunderground v.1.15,2013-07-26 10:48:00,
2013-07-26 06:53:00,51.0,50.2,30.10,NNE,13,0.0,0.0,97,0.00,,,0.00,49,Wunderground v.1.15,2013-07-26 10:53:00,
2013-07-26 06:58:00,51.4,50.6,30.10,NNE,13,0.0,0.0,97,0.00,,,0.00,56,Wunderground v.1.15,2013-07-26 10:58:00,
2013-07-26 07:04:00,52.1,51.3,30.10,NNE,13,0.0,0.0,97,0.00,,,0.00,60,Wunderground v.1.15,2013-07-26 11:04:00,
2013-07-26 07:10:00,52.8,52.3,30.10,NNE,13,0.0,0.0,98,0.00,,,0.00,63,Wunderground v.1.15,2013-07-26 11:10:00,
2013-07-26 07:15:00,53.6,53.0,30.10,NNE,13,0.0,0.0,98,0.00,,,0.00,65,Wunderground v.1.15,2013-07-26 11:15:00,
2013-07-26 07:21:00,54.2,53.6,30.10,NNE,13,0.0,0.0,98,0.00,,,0.00,65,Wunderground v.1.15,2013-07-26 11:21:00,
2013-07-26 07:27:00,54.6,54.0,30.10,NNE,13,0.0,0.0,98,0.00,,,0.00,63,Wunderground v.1.15,2013-07-26 11:27:00,
2013-07-26 07:32:00,55.1,54.5,30.10,NNE,13,0.0,0.0,98,0.00,,,0.00,62,Wunderground v.1.15,2013-07-26 11:32:00,
2013-07-26 07:38:00,55.9,55.3,30.10,NNE,13,0.0,0.0,98,0.00,,,0.00,58,Wunderground v.1.15,2013-07-26 11:38:00,
2013-07-26 07:44:00,56.5,55.9,30.10,NNE,13,0.0,0.0,98,0.00,,,0.00,56,Wunderground v.1.15,2013-07-26 11:44:00,
2013-07-26 07:50:00,57.2,56.6,30.10,NNE,13,0.0,0.0,98,0.00,,,0.00,53,Wunderground v.1.15,2013-07-26 11:50:00,
2013-07-26 07:55:00,57.7,57.1,30.10,NNE,13,0.0,0.0,98,0.00,,,0.00,51,Wunderground v.1.15,2013-07-26 11:55:00,
2013-07-26 08:01:00,58.3,57.7,30.10,North,-999,0.0,0.0,98,0.00,,,-99.99,55,WeatherLink 6.0.3,2013-07-26 12:01:00,
2013-07-26 08:07:00,59.2,58.6,30.10,NNE,13,0.0,0.0,98,0.00,,,0.00,49,Wunderground v.1.15,2013-07-26 12:07:00,
2013-07-26 08:12:00,59.9,59.3,30.10,NNE,13,0.0,0.0,98,0.00,,,0.00,49,Wunderground v.1.15,2013-07-26 12:12:00,
2013-07-26 08:18:00,60.8,59.9,30.10,NNE,13,0.0,1.0,97,0.00,,,0.00,51,Wunderground v.1.15,2013-07-26 12:18:00,
2013-07-26 08:24:00,61.5,59.8,30.10,NNE,13,0.0,0.0,94,0.00,,,0.00,51,Wunderground v.1.15,2013-07-26 12:24:00,
2013-07-26 08:30:00,62.2,59.8,30.10,NNE,13,0.0,0.0,92,0.00,,,0.00,53,Wunderground v.1.15,2013-07-26 12:30:00,
2013-07-26 08:36:00,62.7,59.7,30.10,NNE,13,0.0,0.0,90,0.00,,,0.00,53,Wunderground v.1.15,2013-07-26 12:36:00,
2013-07-26 08:42:00,63.3,60.0,30.10,NNE,13,0.0,0.0,89,0.00,,,0.00,54,Wunderground v.1.15,2013-07-26 12:42:00,
2013-07-26 08:48:00,64.1,60.2,30.10,NE,46,0.0,1.0,87,0.00,,,0.00,54,Wunderground v.1.15,2013-07-26 12:48:00,
2013-07-26 08:54:00,64.7,60.1,30.11,ENE,76,0.0,1.0,85,0.00,,,0.00,56,Wunderground v.1.15,2013-07-26 12:54:00,
2013-07-26 09:00:00,65.3,61.3,30.11,ENE,76,0.0,0.0,87,0.00,,,0.00,58,Wunderground v.1.15,2013-07-26 13:00:00,
2013-07-26 09:05:00,65.8,61.2,30.11,ENE,76,0.0,0.0,85,0.00,,,0.00,60,Wunderground v.1.15,2013-07-26 13:05:00,
2013-07-26 09:11:00,66.5,61.5,30.10,ENE,76,0.0,0.0,84,0.00,,,0.00,60,Wunderground v.1.15,2013-07-26 13:11:00,
2013-07-26 09:16:00,66.9,61.9,30.10,ENE,76,0.0,0.0,84,0.00,,,0.00,60,Wunderground v.1.15,2013-07-26 13:16:00,
2013-07-26 09:21:00,67.2,62.2,30.10,ENE,76,0.0,0.0,84,0.00,,,0.00,60,Wunderground v.1.15,2013-07-26 13:21:00,
2013-07-26 09:27:00,67.7,61.7,30.10,East,82,0.0,1.0,81,0.00,,,0.00,62,Wunderground v.1.15,2013-07-26 13:27:00,
2013-07-26 09:32:00,68.0,61.6,30.10,East,82,0.0,1.0,80,0.00,,,0.00,62,Wunderground v.1.15,2013-07-26 13:32:00,
2013-07-26 09:38:00,68.5,62.4,30.10,East,82,0.0,1.0,81,0.00,,,0.00,62,Wunderground v.1.15,2013-07-26 13:38:00,
2013-07-26 09:43:00,68.9,62.5,30.10,East,82,0.0,0.0,80,0.00,,,0.00,62,Wunderground v.1.15,2013-07-26 13:43:00,
2013-07-26 09:49:00,69.7,63.6,30.10,East,82,0.0,0.0,81,0.00,,,0.00,62,Wunderground v.1.15,2013-07-26 13:49:00,
2013-07-26 09:55:00,70.3,62.7,30.10,East,82,0.0,0.0,77,0.00,,,0.00,63,Wunderground v.1.15,2013-07-26 13:55:00,
2013-07-26 10:00:00,70.5,62.2,30.10,NE,55,0.0,0.0,75,0.00,,,0.00,63,Wunderground v.1.15,2013-07-26 14:00:00,
2013-07-26 10:06:00,70.9,64.4,30.10,NE,52,0.0,0.0,80,0.00,,,0.00,65,Wunderground v.1.15,2013-07-26 14:06:00,
2013-07-26 10:12:00,71.1,63.1,30.10,NE,53,0.0,0.0,76,0.00,,,0.00,65,Wunderground v.1.15,2013-07-26 14:12:00,
2013-07-26 10:17:00,71.4,63.1,30.10,NE,53,0.0,0.0,75,0.00,,,0.00,67,Wunderground v.1.15,2013-07-26 14:17:00,
2013-07-26 10:23:00,71.7,63.0,30.10,NE,53,0.0,0.0,74,0.00,,,0.00,67,Wunderground v.1.15,2013-07-26 14:23:00,
2013-07-26 10:29:00,71.8,64.2,30.10,NNW,338,0.0,1.0,77,0.00,,,0.00,69,Wunderground v.1.15,2013-07-26 14:29:00,
2013-07-26 10:34:00,72.0,62.9,30.10,NNW,340,0.0,0.0,73,0.00,,,0.00,69,Wunderground v.1.15,2013-07-26 14:34:00,
2013-07-26 10:39:00,72.2,63.8,30.10,NNW,337,0.0,2.0,75,0.00,,,0.00,69,Wunderground v.1.15,2013-07-26 14:39:00,
2013-07-26 10:45:00,72.4,63.6,30.10,NNW,337,0.0,0.0,74,0.00,,,0.00,69,Wunderground v.1.15,2013-07-26 14:45:00,
2013-07-26 10:51:00,72.6,63.1,30.10,NNW,338,0.0,0.0,72,0.00,,,0.00,69,Wunderground v.1.15,2013-07-26 14:51:00,
2013-07-26 10:56:00,72.9,62.9,30.10,NNW,338,0.0,0.0,71,0.00,,,0.00,70,Wunderground v.1.15,2013-07-26 14:56:00,
2013-07-26 11:01:00,73.2,62.8,30.10,NNW,337,0.0,3.0,70,0.00,,,-99.99,69,WeatherLink 6.0.3,2013-07-26 15:01:00,
2013-07-26 11:07:00,73.9,63.1,30.10,WSW,256,0.0,1.0,69,0.00,,,0.00,74,Wunderground v.1.15,2013-07-26 15:07:00,
2013-07-26 11:12:00,74.6,64.6,30.10,West,263,0.0,0.0,71,0.00,,,0.00,90,Wunderground v.1.15,2013-07-26 15:12:00,
2013-07-26 11:18:00,74.9,61.0,30.10,West,267,0.0,0.0,62,0.00,,,0.00,134,Wunderground v.1.15,2013-07-26 15:18:00,
2013-07-26 11:23:00,75.2,60.8,30.10,North,5,1.0,1.0,61,0.00,,,0.00,214,Wunderground v.1.15,2013-07-26 15:23:00,
2013-07-26 11:28:00,75.3,60.5,30.10,SSE,156,1.0,4.0,60,0.00,,,0.00,290,Wunderground v.1.15,2013-07-26 15:28:00,
2013-07-26 11:34:00,75.5,62.9,30.10,SSE,148,1.0,1.0,65,0.00,,,0.00,387,Wunderground v.1.15,2013-07-26 15:34:00,
2013-07-26 11:40:00,75.6,62.1,30.09,SSE,153,1.0,1.0,63,0.00,,,0.00,520,Wunderground v.1.15,2013-07-26 15:40:00,
2013-07-26 11:45:00,75.6,60.3,30.09,SSE,155,1.0,1.0,59,0.00,,,0.00,598,Wunderground v.1.15,2013-07-26 15:45:00,
2013-07-26 11:50:00,75.6,60.3,30.09,SE,127,0.0,0.0,59,0.00,,,0.00,668,Wunderground v.1.15,2013-07-26 15:50:00,
2013-07-26 11:55:00,75.8,59.5,30.09,SE,142,0.0,0.0,57,0.00,,,0.00,633,Wunderground v.1.15,2013-07-26 15:55:00,
2013-07-26 12:01:00,75.9,62.4,30.09,SE,135,0.0,6.0,63,0.00,,,-99.99,560,WeatherLink 6.0.3,2013-07-26 16:01:00,
2013-07-26 12:07:00,76.2,63.6,30.09,SSE,153,0.0,3.0,65,0.00,,,0.00,561,Wunderground v.1.15,2013-07-26 16:07:00,
2013-07-26 12:13:00,76.5,59.6,30.09,SE,143,1.0,3.0,56,0.00,,,0.00,554,Wunderground v.1.15,2013-07-26 16:13:00,
2013-07-26 12:19:00,76.4,60.0,30.09,East,98,1.0,5.0,57,0.00,,,0.00,573,Wunderground v.1.15,2013-07-26 16:19:00,
2013-07-26 12:25:00,76.7,63.2,30.09,SSE,151,0.0,3.0,63,0.00,,,0.00,649,Wunderground v.1.15,2013-07-26 16:25:00,
2013-07-26 12:31:00,76.5,60.1,30.09,SSE,157,1.0,7.0,57,0.00,,,-99.99,597,WeatherLink 6.0.3,2013-07-26 16:31:00,
2013-07-26 12:36:00,76.5,60.6,30.09,SSE,168,0.0,1.0,58,0.00,,,0.00,802,Wunderground v.1.15,2013-07-26 16:36:00,
2013-07-26 12:42:00,76.7,59.8,30.09,SE,137,0.0,6.0,56,0.00,,,0.00,867,Wunderground v.1.15,2013-07-26 16:42:00,
2013-07-26 12:48:00,76.9,61.0,30.08,SE,143,1.0,6.0,58,0.00,,,0.00,882,Wunderground v.1.15,2013-07-26 16:48:00,
2013-07-26 12:53:00,77.1,61.7,30.09,SE,144,0.0,1.0,59,0.00,,,0.00,888,Wunderground v.1.15,2013-07-26 16:53:00,
2013-07-26 12:58:00,77.3,60.4,30.08,SSE,157,0.0,2.0,56,0.00,,,0.00,898,Wunderground v.1.15,2013-07-26 16:58:00,
2013-07-26 13:03:00,77.6,62.1,30.08,SSE,157,0.0,1.0,59,0.00,,,0.00,902,Wunderground v.1.15,2013-07-26 17:03:00,
2013-07-26 13:09:00,77.5,61.6,30.08,East,99,1.0,2.0,58,0.00,,,0.00,905,Wunderground v.1.15,2013-07-26 17:09:00,
2013-07-26 13:15:00,77.3,63.3,30.08,NNE,24,1.0,2.0,62,0.00,,,0.00,911,Wunderground v.1.15,2013-07-26 17:15:00,
2013-07-26 13:21:00,77.6,64.0,30.08,SSE,152,0.0,0.0,63,0.00,,,0.00,916,Wunderground v.1.15,2013-07-26 17:21:00,
2013-07-26 13:27:00,77.7,61.7,30.08,SSE,166,0.0,1.0,58,0.00,,,0.00,923,Wunderground v.1.15,2013-07-26 17:27:00,
2013-07-26 13:32:00,77.9,61.4,30.08,SSE,154,0.0,0.0,57,0.00,,,0.00,923,Wunderground v.1.15,2013-07-26 17:32:00,
2013-07-26 13:38:00,78.1,61.1,30.08,SSE,154,0.0,1.0,56,0.00,,,0.00,926,Wunderground v.1.15,2013-07-26 17:38:00,
2013-07-26 13:43:00,78.2,63.6,30.07,SSE,154,0.0,0.0,61,0.00,,,0.00,930,Wunderground v.1.15,2013-07-26 17:43:00,
2013-07-26 13:49:00,78.4,61.4,30.07,West,277,0.0,0.0,56,0.00,,,0.00,928,Wunderground v.1.15,2013-07-26 17:49:00,
2013-07-26 13:55:00,78.5,62.0,30.07,West,277,0.0,1.0,57,0.00,,,0.00,928,Wunderground v.1.15,2013-07-26 17:55:00,
2013-07-26 14:01:00,78.8,62.3,30.07,South,180,0.0,2.0,57,0.00,,,-99.99,928,WeatherLink 6.0.3,2013-07-26 18:01:00,
2013-07-26 14:07:00,78.7,62.2,30.07,SSE,155,0.0,3.0,57,0.00,,,0.00,928,Wunderground v.1.15,2013-07-26 18:07:00,
2013-07-26 14:12:00,78.6,63.6,30.07,NE,38,0.0,1.0,60,0.00,,,0.00,928,Wunderground v.1.15,2013-07-26 18:12:00,
2013-07-26 14:17:00,78.6,62.6,30.06,ENE,68,0.0,1.0,58,0.00,,,0.00,928,Wunderground v.1.15,2013-07-26 18:17:00,
2013-07-26 14:23:00,78.4,61.9,30.07,SSE,155,0.0,2.0,57,0.00,,,0.00,925,Wunderground v.1.15,2013-07-26 18:23:00,
2013-07-26 14:29:00,78.2,63.6,30.06,SE,146,0.0,2.0,61,0.00,,,0.00,916,Wunderground v.1.15,2013-07-26 18:29:00,
2013-07-26 14:35:00,78.3,64.2,30.06,WSW,255,0.0,0.0,62,0.00,,,0.00,914,Wunderground v.1.15,2013-07-26 18:35:00,
2013-07-26 14:40:00,78.5,62.0,30.06,SE,135,0.0,1.0,57,0.00,,,0.00,909,Wunderground v.1.15,2013-07-26 18:40:00,
2013-07-26 14:46:00,78.3,60.8,30.06,NNW,339,1.0,1.0,55,0.00,,,0.00,900,Wunderground v.1.15,2013-07-26 18:46:00,
2013-07-26 14:57:00,78.2,64.6,30.05,South,178,1.0,1.0,63,0.00,,,0.00,900,Wunderground v.1.15,2013-07-26 18:57:00,
2013-07-26 15:02:00,78.1,61.1,30.05,South,169,1.0,1.0,56,0.00,,,0.00,898,Wunderground v.1.15,2013-07-26 19:02:00,
2013-07-26 15:08:00,78.2,64.6,30.05,SSW,204,0.0,3.0,63,0.00,,,0.00,893,Wunderground v.1.15,2013-07-26 19:08:00,
2013-07-26 15:14:00,78.4,63.8,30.05,SSW,204,0.0,1.0,61,0.00,,,0.00,889,Wunderground v.1.15,2013-07-26 19:14:00,
2013-07-26 15:19:00,78.5,61.0,30.05,ESE,105,0.0,3.0,55,0.00,,,0.00,884,Wunderground v.1.15,2013-07-26 19:19:00,
2013-07-26 15:24:00,78.8,63.3,30.05,SSE,166,0.0,2.0,59,0.00,,,0.00,879,Wunderground v.1.15,2013-07-26 19:24:00,
2013-07-26 15:30:00,79.0,64.9,30.05,South,171,0.0,0.0,62,0.00,,,0.00,872,Wunderground v.1.15,2013-07-26 19:30:00,
2013-07-26 15:35:00,78.8,62.3,30.04,SSE,157,0.0,1.0,57,0.00,,,0.00,863,Wunderground v.1.15,2013-07-26 19:35:00,
2013-07-26 15:41:00,79.0,63.9,30.04,NNW,344,0.0,2.0,60,0.00,,,0.00,856,Wunderground v.1.15,2013-07-26 19:41:00,
2013-07-26 15:46:00,79.2,64.1,30.04,NW,313,0.0,2.0,60,0.00,,,0.00,849,Wunderground v.1.15,2013-07-26 19:46:00,
2013-07-26 15:52:00,79.3,65.6,30.03,WNW,290,0.0,0.0,63,0.00,,,0.00,844,Wunderground v.1.15,2013-07-26 19:52:00,
2013-07-26 15:58:00,79.3,63.7,30.03,WNW,290,0.0,0.0,59,0.00,,,0.00,840,Wunderground v.1.15,2013-07-26 19:58:00,
2013-07-26 16:04:00,79.3,62.7,30.03,SW,232,0.0,0.0,57,0.00,,,0.00,823,Wunderground v.1.15,2013-07-26 20:04:00,
2013-07-26 16:09:00,79.3,61.7,30.03,WSW,256,0.0,1.0,55,0.00,,,0.00,809,Wunderground v.1.15,2013-07-26 20:09:00,
2013-07-26 16:15:00,79.5,64.4,30.03,WSW,254,0.0,0.0,60,0.00,,,0.00,796,Wunderground v.1.15,2013-07-26 20:15:00,
2013-07-26 16:21:00,79.9,65.7,30.03,WSW,254,0.0,0.0,62,0.00,,,0.00,786,Wunderground v.1.15,2013-07-26 20:21:00,
2013-07-26 16:26:00,80.0,66.3,30.03,WSW,248,0.0,0.0,63,0.00,,,0.00,773,Wunderground v.1.15,2013-07-26 20:26:00,
2013-07-26 16:32:00,80.2,63.1,30.03,WNW,301,0.0,1.0,56,0.00,,,0.00,766,Wunderground v.1.15,2013-07-26 20:32:00,
2013-07-26 16:37:00,80.1,62.0,30.03,South,169,1.0,4.0,54,0.00,,,0.00,751,Wunderground v.1.15,2013-07-26 20:37:00,
2013-07-26 16:43:00,79.9,62.3,30.02,SSW,192,1.0,1.0,55,0.00,,,0.00,738,Wunderground v.1.15,2013-07-26 20:43:00,
2013-07-26 16:48:00,80.0,65.3,30.02,SSW,192,0.0,1.0,61,0.00,,,0.00,729,Wunderground v.1.15,2013-07-26 20:48:00,
2013-07-26 16:54:00,80.1,67.7,30.02,SSW,192,0.0,0.0,66,0.00,,,0.00,715,Wunderground v.1.15,2013-07-26 20:54:00,
2013-07-26 16:59:00,80.1,65.0,30.02,WSW,242,0.0,1.0,60,0.00,,,0.00,705,Wunderground v.1.15,2013-07-26 20:59:00,
2013-07-26 17:04:00,80.2,65.5,30.02,South,171,0.0,2.0,61,0.00,,,0.00,689,Wunderground v.1.15,2013-07-26 21:04:00,
2013-07-26 17:09:00,79.9,62.8,30.02,SSE,157,1.0,2.0,56,0.00,,,0.00,670,Wunderground v.1.15,2013-07-26 21:09:00,
2013-07-26 17:14:00,79.5,63.9,30.02,SSE,155,1.0,1.0,59,0.00,,,0.00,657,Wunderground v.1.15,2013-07-26 21:14:00,
2013-07-26 17:20:00,79.1,64.0,30.02,SSE,155,0.0,0.0,60,0.00,,,0.00,645,Wunderground v.1.15,2013-07-26 21:20:00,
2013-07-26 17:25:00,79.0,66.2,30.02,SSE,155,0.0,1.0,65,0.00,,,0.00,633,Wunderground v.1.15,2013-07-26 21:25:00,
2013-07-26 17:30:00,79.1,63.1,30.02,SSE,155,0.0,0.0,58,0.00,,,0.00,633,Wunderground v.1.15,2013-07-26 21:30:00,
2013-07-26 17:36:00,79.2,62.1,30.02,SSE,155,0.0,1.0,56,0.00,,,0.00,619,Wunderground v.1.15,2013-07-26 21:36:00,
2013-07-26 17:41:00,79.4,64.3,30.02,SSE,155,0.0,1.0,60,0.00,,,0.00,587,Wunderground v.1.15,2013-07-26 21:41:00,
2013-07-26 17:46:00,79.5,65.8,30.02,SSE,155,0.0,2.0,63,0.00,,,0.00,582,Wunderground v.1.15,2013-07-26 21:46:00,
2013-07-26 17:52:00,79.9,65.2,30.01,SSE,155,0.0,0.0,61,0.00,,,0.00,387,Wunderground v.1.15,2013-07-26 21:52:00,
2013-07-26 17:57:00,80.1,63.5,30.01,SSE,153,0.0,1.0,57,0.00,,,0.00,541,Wunderground v.1.15,2013-07-26 21:57:00,
2013-07-26 18:03:00,79.9,62.8,30.01,SSE,153,0.0,0.0,56,0.00,,,0.00,524,Wunderground v.1.15,2013-07-26 22:03:00,
2013-07-26 18:08:00,79.6,65.0,30.01,SE,134,0.0,2.0,61,0.00,,,0.00,417,Wunderground v.1.15,2013-07-26 22:08:00,
2013-07-26 18:14:00,79.1,65.0,30.01,SE,134,0.0,0.0,62,0.00,,,0.00,269,Wunderground v.1.15,2013-07-26 22:14:00,
2013-07-26 18:19:00,78.7,63.6,30.01,SE,134,0.0,0.0,60,0.00,,,0.00,295,Wunderground v.1.15,2013-07-26 22:19:00,
2013-07-26 18:25:00,78.2,65.0,30.01,SE,134,0.0,1.0,64,0.00,,,0.00,100,Wunderground v.1.15,2013-07-26 22:25:00,
2013-07-26 18:31:00,77.5,63.9,30.01,SE,135,0.0,3.0,63,0.00,,,-99.99,253,WeatherLink 6.0.3,2013-07-26 22:31:00,
2013-07-26 18:36:00,76.9,63.3,30.01,SE,136,0.0,1.0,63,0.00,,,0.00,39,Wunderground v.1.15,2013-07-26 22:36:00,
2013-07-26 18:42:00,76.3,62.3,30.00,SE,136,0.0,0.0,62,0.00,,,0.00,37,Wunderground v.1.15,2013-07-26 22:42:00,
2013-07-26 18:47:00,75.9,64.2,30.00,SE,136,0.0,0.0,67,0.00,,,0.00,35,Wunderground v.1.15,2013-07-26 22:47:00,
2013-07-26 18:52:00,75.5,62.0,30.00,SE,136,0.0,0.0,63,0.00,,,0.00,35,Wunderground v.1.15,2013-07-26 22:52:00,
2013-07-26 18:58:00,75.1,61.6,30.01,SE,136,0.0,0.0,63,0.00,,,0.00,39,Wunderground v.1.15,2013-07-26 22:58:00,
2013-07-26 19:03:00,74.8,63.5,30.00,SE,136,0.0,0.0,68,0.00,,,0.00,93,Wunderground v.1.15,2013-07-26 23:03:00,
2013-07-26 19:09:00,74.4,61.0,30.00,SE,136,0.0,0.0,63,0.00,,,0.00,32,Wunderground v.1.15,2013-07-26 23:09:00,
2013-07-26 19:15:00,74.2,62.1,30.00,SE,136,0.0,0.0,66,0.00,,,0.00,25,Wunderground v.1.15,2013-07-26 23:15:00,
2013-07-26 19:21:00,73.8,60.9,30.00,SE,136,0.0,0.0,64,0.00,,,0.00,33,Wunderground v.1.15,2013-07-26 23:21:00,
2013-07-26 19:27:00,73.3,64.1,30.00,SE,136,0.0,0.0,73,0.00,,,0.00,28,Wunderground v.1.15,2013-07-26 23:27:00,
2013-07-26 19:33:00,72.7,63.9,30.00,SE,136,0.0,0.0,74,0.00,,,0.00,37,Wunderground v.1.15,2013-07-26 23:33:00,
2013-07-26 19:39:00,72.1,64.1,30.00,SE,136,0.0,0.0,76,0.00,,,0.00,26,Wunderground v.1.15,2013-07-26 23:39:00,
2013-07-26 19:44:00,71.7,65.6,30.00,SE,136,0.0,0.0,81,0.00,,,0.00,26,Wunderground v.1.15,2013-07-26 23:44:00,
2013-07-26 19:49:00,71.2,64.7,30.00,SE,136,0.0,0.0,80,0.00,,,0.00,23,Wunderground v.1.15,2013-07-26 23:49:00,
2013-07-26 19:55:00,70.8,65.7,30.00,SE,136,0.0,0.0,84,0.00,,,0.00,23,Wunderground v.1.15,2013-07-26 23:55:00,
2013-07-26 20:01:00,70.3,65.2,30.00,North,-999,0.0,0.0,84,0.00,,,-99.99,25,WeatherLink 6.0.3,2013-07-27 00:01:00,
2013-07-26 20:07:00,69.8,65.1,30.00,SE,136,0.0,0.0,85,0.00,,,0.00,19,Wunderground v.1.15,2013-07-27 00:07:00,
2013-07-26 20:12:00,69.3,64.6,30.00,SE,136,0.0,0.0,85,0.00,,,0.00,12,Wunderground v.1.15,2013-07-27 00:12:00,
2013-07-26 20:18:00,68.8,64.4,30.00,SE,136,0.0,0.0,86,0.00,,,0.00,9,Wunderground v.1.15,2013-07-27 00:18:00,
2013-07-26 20:23:00,68.4,64.0,30.00,SE,136,0.0,0.0,86,0.00,,,0.00,9,Wunderground v.1.15,2013-07-27 00:23:00,
2013-07-26 20:28:00,67.9,63.9,30.00,SE,136,0.0,0.0,87,0.00,,,0.00,7,Wunderground v.1.15,2013-07-27 00:28:00,
2013-07-26 20:34:00,67.3,63.3,30.00,SE,136,0.0,0.0,87,0.00,,,0.00,0,Wunderground v.1.15,2013-07-27 00:34:00,
2013-07-26 20:40:00,66.8,62.8,30.00,SE,136,0.0,0.0,87,0.00,,,0.00,0,Wunderground v.1.15,2013-07-27 00:40:00,
2013-07-26 20:45:00,66.4,62.7,30.00,SE,136,0.0,0.0,88,0.00,,,0.00,0,Wunderground v.1.15,2013-07-27 00:45:00,
2013-07-26 20:51:00,65.9,62.6,30.00,SE,136,0.0,0.0,89,0.00,,,0.00,0,Wunderground v.1.15,2013-07-27 00:51:00,
2013-07-26 20:57:00,65.4,61.8,30.00,SE,136,0.0,0.0,88,0.00,,,0.00,0,Wunderground v.1.15,2013-07-27 00:57:00,
2013-07-26 21:02:00,65.1,61.8,30.00,SE,136,0.0,0.0,89,0.00,,,0.00,0,Wunderground v.1.15,2013-07-27 01:02:00,
2013-07-26 21:08:00,64.6,61.6,30.00,SE,136,0.0,0.0,90,0.00,,,0.00,0,Wunderground v.1.15,2013-07-27 01:08:00,
2013-07-26 21:14:00,64.2,61.2,30.00,SE,136,0.0,0.0,90,0.00,,,0.00,0,Wunderground v.1.15,2013-07-27 01:14:00,
2013-07-26 21:20:00,63.8,60.8,30.00,SE,136,0.0,0.0,90,0.00,,,0.00,0,Wunderground v.1.15,2013-07-27 01:20:00,
2013-07-26 21:26:00,63.5,60.8,30.00,SE,136,0.0,0.0,91,0.00,,,0.00,0,Wunderground v.1.15,2013-07-27 01:26:00,
2013-07-26 21:31:00,63.2,60.5,30.00,SE,136,0.0,0.0,91,0.00,,,0.00,0,Wunderground v.1.15,2013-07-27 01:31:00,
2013-07-26 21:37:00,62.9,60.5,30.00,SE,136,0.0,0.0,92,0.00,,,0.00,0,Wunderground v.1.15,2013-07-27 01:37:00,
2013-07-26 21:43:00,62.7,60.3,30.00,SE,136,0.0,0.0,92,0.00,,,0.00,0,Wunderground v.1.15,2013-07-27 01:43:00,
2013-07-26 21:49:00,62.4,60.0,30.01,SE,136,0.0,0.0,92,0.00,,,0.00,0,Wunderground v.1.15,2013-07-27 01:49:00,
2013-07-26 21:55:00,62.2,59.8,30.01,SE,136,0.0,0.0,92,0.00,,,0.00,0,Wunderground v.1.15,2013-07-27 01:55:00,
2013-07-26 22:00:00,62.1,60.1,30.01,SE,136,0.0,0.0,93,0.00,,,0.00,0,Wunderground v.1.15,2013-07-27 02:00:00,
2013-07-26 22:06:00,61.9,59.9,30.01,SE,136,0.0,0.0,93,0.00,,,0.00,0,Wunderground v.1.15,2013-07-27 02:06:00,
2013-07-26 22:12:00,61.8,59.8,30.01,SE,136,0.0,0.0,93,0.00,,,0.00,0,Wunderground v.1.15,2013-07-27 02:12:00,
2013-07-26 22:17:00,61.6,59.6,30.01,SE,136,0.0,0.0,93,0.00,,,0.00,0,Wunderground v.1.15,2013-07-27 02:17:00,
2013-07-26 22:22:00,61.5,59.8,30.02,SE,136,0.0,0.0,94,0.00,,,0.00,0,Wunderground v.1.15,2013-07-27 02:22:00,
2013-07-26 22:28:00,61.4,59.7,30.02,SE,136,0.0,0.0,94,0.00,,,0.00,0,Wunderground v.1.15,2013-07-27 02:28:00,
2013-07-26 22:34:00,61.3,59.6,30.02,SE,136,0.0,0.0,94,0.00,,,0.00,0,Wunderground v.1.15,2013-07-27 02:34:00,
2013-07-26 22:39:00,61.1,59.4,30.02,SE,136,0.0,0.0,94,0.00,,,0.00,0,Wunderground v.1.15,2013-07-27 02:39:00,
2013-07-26 22:45:00,60.9,59.2,30.01,SE,136,0.0,0.0,94,0.00,,,0.00,0,Wunderground v.1.15,2013-07-27 02:45:00,
2013-07-26 22:51:00,60.7,59.0,30.01,SE,136,0.0,0.0,94,0.00,,,0.00,0,Wunderground v.1.15,2013-07-27 02:51:00,
2013-07-26 22:57:00,60.6,58.9,30.01,SE,136,0.0,0.0,94,0.00,,,0.00,0,Wunderground v.1.15,2013-07-27 02:57:00,
2013-07-26 23:02:00,60.5,58.8,30.01,SE,136,0.0,0.0,94,0.00,,,0.00,0,Wunderground v.1.15,2013-07-27 03:02:00,
2013-07-26 23:08:00,60.4,58.7,30.01,SE,136,0.0,0.0,94,0.00,,,0.00,0,Wunderground v.1.15,2013-07-27 03:08:00,
2013-07-26 23:14:00,60.2,58.8,30.01,SE,136,0.0,0.0,95,0.00,,,0.00,0,Wunderground v.1.15,2013-07-27 03:14:00,
2013-07-26 23:19:00,60.1,58.4,30.01,SE,136,0.0,0.0,94,0.00,,,0.00,0,Wunderground v.1.15,2013-07-27 03:19:00,
2013-07-26 23:25:00,60.0,58.6,30.01,SE,136,0.0,0.0,95,0.00,,,0.00,0,Wunderground v.1.15,2013-07-27 03:25:00,
2013-07-26 23:31:00,59.9,58.5,30.01,North,-999,0.0,0.0,95,0.00,,,-99.99,0,WeatherLink 6.0.3,2013-07-27 03:31:00,
2013-07-26 23:37:00,59.7,58.3,30.01,SE,136,0.0,0.0,95,0.00,,,0.00,0,Wunderground v.1.15,2013-07-27 03:37:00,
2013-07-26 23:42:00,59.6,58.2,30.01,SE,136,0.0,0.0,95,0.00,,,0.00,0,Wunderground v.1.15,2013-07-27 03:42:00,
2013-07-26 23:48:00,59.6,58.2,30.01,SE,136,0.0,0.0,95,0.00,,,0.00,0,Wunderground v.1.15,2013-07-27 03:48:00,
2013-07-26 23:53:00,59.5,58.1,30.01,SE,136,0.0,0.0,95,0.00,,,0.00,0,Wunderground v.1.15,2013-07-27 03:53:00,
2013-07-26 23:58:00,59.3,57.9,30.01,SE,136,0.0,0.0,95,0.00,,,0.00,0,Wunderground v.1.15,2013-07-27 03:58:00,